This demonstration page uses our WeatherBlox Daily Observations layout. Learn more.

Left ArrowRight Arrow

Hourly Observations for October 31, 2018

Temp ( °F °C ) Dew Point ( °F °C ) Humidity (%) Winds ( mph kmh ) Pressure ( in mb ) Visibility ( mi km ) Precip ( " mm )
12:27 am 00:27 Mostly Cloudy with Nearby Thunderstorms 63 17.2 49 9.4 60 60 NW 13 20 29.80 1009 10 16 0.00 0.00
12:42 am 00:42 Mostly Cloudy 63 17 48 9 59 59 NW 16 26 29.80 1009 10 16 0.00 0.00
12:51 am 00:51 Mostly Clear 62 16.7 50 10 65 65 WNW 16 26 29.76 1008 10 16 0.00 0.00
1:33 am 01:33 Partly Cloudy with Nearby Thunderstorms 61 16.1 49 9.4 65 65 NW 12 19 29.80 1009 10 16 0.00 0.00
1:48 am 01:48 Partly Cloudy 61 16 48 9 63 63 NNW 14 22 29.80 1009 10 16 0.00 0.00
1:51 am 01:51 Partly Cloudy 61 16.1 49 9.4 65 65 NNW 13 20 29.76 1008 10 16 0.00 0.00
2:51 am 02:51 Mostly Cloudy 61 16.1 49 9.4 65 65 NNW 15 24 29.75 1007 10 16 0.00 0.00
3:00 am 03:00 Mostly Cloudy with Nearby Thunderstorms 61 16 48 9 63 63 NNW 14 22 29.80 1009 10 16 0.00 0.00
3:15 am 03:15 Mostly Cloudy 61 16.1 49 9.4 65 65 NNW 14 22 29.80 1009 10 16 0.00 0.00
3:51 am 03:51 Cloudy 62 16.7 48 8.9 60 60 NW 15 24 29.75 1008 10 16 0.00 0.00
4:51 am 04:51 Clear 59 15 48 8.9 67 67 NW 12 19 29.76 1008 10 16 0.00 0.00
5:51 am 05:51 Clear 59 15 45 7.2 60 60 NW 12 19 29.78 1008 10 16 0.00 0.00
6:51 am 06:51 Sunny 56 13.3 46 7.8 70 70 NW 6 9 29.81 1009 10 16 0.00 0.00
7:51 am 07:51 Sunny 60 15.6 42 5.6 52 52 NW 17 28 29.83 1010 10 16 0.00 0.00
8:51 am 08:51 Sunny 62 16.7 36 2.2 38 38 NW 21 33 29.85 1011 10 16 0.00 0.00
9:51 am 09:51 Sunny 64 17.8 33 0.6 32 32 WNW 20 31 29.87 1011 10 16 0.00 0.00
10:51 am 10:51 Sunny 65 18.3 35 1.7 33 33 WNW 20 31 29.86 1011 10 16 0.00 0.00
11:51 am 11:51 Mostly Sunny 66 18.9 39 3.9 37 37 W 17 28 29.84 1011 10 16 0.00 0.00
12:51 pm 12:51 Sunny 68 20 36 2.2 31 31 WNW 21 33 29.82 1010 10 16 0.00 0.00
1:51 pm 13:51 Mostly Sunny 69 20.6 31 -0.6 24 24 W 29 46 29.80 1009 10 16 0.00 0.00
2:51 pm 14:51 Sunny 69 20.6 26 -3.3 20 20 WNW 23 37 29.81 1010 10 16 0.00 0.00
3:51 pm 15:51 Sunny 69 20.6 20 -6.7 15 15 WNW 20 31 29.82 1010 10 16 0.00 0.00
4:51 pm 16:51 Sunny 66 18.9 21 -6.1 18 18 WNW 17 28 29.85 1011 10 16 0.00 0.00
5:51 pm 17:51 Clear 63 17.2 20 -6.7 19 19 WNW 14 22 29.89 1012 10 16 0.00 0.00
6:51 pm 18:51 Clear 60 15.6 24 -4.4 25 25 NW 15 24 29.93 1014 10 16 0.00 0.00
7:51 pm 19:51 Clear 58 14.4 25 -3.9 28 28 NW 12 19 29.93 1014 10 16 0.00 0.00
8:51 pm 20:51 Clear 55 12.8 26 -3.3 33 33 WNW 9 15 29.96 1014 10 16 0.00 0.00
9:51 pm 21:51 Clear 51 10.6 29 -1.7 43 43 N 6 9 29.98 1015 10 16 0.00 0.00
10:51 pm 22:51 Clear 50 10 29 -1.7 44 44 N 8 13 29.98 1015 10 16 0.00 0.00
11:51 pm 23:51 Clear 50 10 30 -1.1 46 46 N 9 15 29.98 1015 10 16 0.00 0.00

Powered by AerisWeather